Marysville, MI

1:40 PM EST on January 17, 2017 (GMT -0500)
Saint Clair County International

Weather History for KPHN - February, 2013

Change the Weather History Date:

Friday, February 22, 2013

  Actual Average (KMTC) Record (KMTC)
Temperature  
Mean Temperature 28 °F -  
Max Temperature 35 °F 38 °F 56 °F (1984)
Min Temperature 21 °F 23 °F -4 °F (1963)
Degree Days  
Heating Degree Days 37    
Moisture  
Dew Point 25 °F    
Average Humidity 88    
Maximum Humidity 100    
Minimum Humidity 74    
Precipitation  
Precipitation 0.00 in - - ()
Sea Level Pressure  
Sea Level Pressure 30.03 in    
Wind  
Wind Speed 9 mph (SE)    
Max Wind Speed 17 mph    
Max Gust Speed 24 mph    
Visibility 5 miles    
Events Fog , Snow    
Averages and records for this station are not official NWS values.
T = Trace of Precipitation, MM = Missing Value Source: NWS Daily Summary

Daily Weather History Graph

Daily Weather History Graph

Search for Another Location

Airport or City:

Trip Planner

Search our weather history database for the weather conditions in past years. The results will help you decide how hot, cold, wet, or windy it might be!

Date:

Astronomy

Feb. 22, 2013 Rise Set
Actual Time 7:16 AM EST 6:11 PM EST
Civil Twilight 6:48 AM EST 6:39 PM EST
Nautical Twilight 6:15 AM EST 7:12 PM EST
Astronomical Twilight 5:42 AM EST 7:45 PM EST
Moon 3:18 PM EST (2/22) 5:04 AM EST (2/22)
Length of Visible Light 11h 51m
Length of Day
10h 54m
Waxing Gibbous, 90% of the Moon is Illuminated
Feb 22
Waxing Gibbous
Feb 25
Full
Mar 4
Last Quarter
Mar 11
New
Mar 19
First Quarter

Hourly Weather History & Observations

Time (EST) Temp. Windchill Dew Point Humidity Pressure Visibility Wind Dir Wind Speed Gust Speed Precip Events Conditions
12:18 AM 23.0 °F 13.1 °F 19.4 °F 86% 30.29 in 10.0 mi East 9.2 mph - N/A   Overcast
12:38 AM 21.2 °F 11.7 °F 17.6 °F 86% 30.28 in 10.0 mi East 8.1 mph - N/A   Overcast
12:58 AM 21.2 °F 10.1 °F 15.8 °F 80% 30.28 in 10.0 mi East 10.4 mph - N/A   Scattered Clouds
1:18 AM 21.2 °F 11.7 °F 15.8 °F 80% 30.29 in 10.0 mi ESE 8.1 mph - N/A   Scattered Clouds
1:38 AM 21.2 °F 11.7 °F 14.0 °F 74% 30.28 in 10.0 mi ESE 8.1 mph - N/A   Clear
1:58 AM 21.2 °F 13.6 °F 14.0 °F 74% 30.29 in 10.0 mi ESE 5.8 mph - N/A   Clear
2:19 AM 21.2 °F 13.6 °F 14.0 °F 74% 30.29 in 10.0 mi ESE 5.8 mph - N/A   Clear
2:38 AM 21.2 °F 16.4 °F 14.0 °F 74% 30.29 in 10.0 mi ESE 3.5 mph - N/A   Clear
2:58 AM 21.2 °F 13.6 °F 15.8 °F 80% 30.27 in 10.0 mi East 5.8 mph - N/A   Clear
3:18 AM 21.2 °F 14.9 °F 15.8 °F 80% 30.26 in 10.0 mi East 4.6 mph - N/A   Clear
3:38 AM 21.2 °F 11.7 °F 15.8 °F 80% 30.23 in 10.0 mi East 8.1 mph - N/A   Clear
3:59 AM 21.2 °F 10.9 °F 15.8 °F 80% 30.22 in 10.0 mi East 9.2 mph - N/A   Scattered Clouds
4:18 AM 21.2 °F 11.7 °F 15.8 °F 80% 30.21 in 10.0 mi East 8.1 mph - N/A   Overcast
4:38 AM 23.0 °F 13.1 °F 17.6 °F 80% 30.19 in 10.0 mi East 9.2 mph - N/A   Overcast
4:58 AM 23.0 °F 13.1 °F 17.6 °F 80% 30.16 in 10.0 mi ESE 9.2 mph - N/A   Overcast
5:18 AM 23.0 °F 13.1 °F 17.6 °F 80% 30.16 in 10.0 mi East 9.2 mph 17.3 mph N/A   Overcast
5:38 AM 23.0 °F 12.4 °F 17.6 °F 80% 30.14 in 10.0 mi East 10.4 mph - N/A   Overcast
5:58 AM 23.0 °F 10.1 °F 19.4 °F 86% 30.13 in 10.0 mi East 15.0 mph 21.9 mph N/A   Overcast
6:18 AM 23.0 °F 11.1 °F 19.4 °F 86% 30.13 in 10.0 mi East 12.7 mph 17.3 mph N/A   Overcast
6:38 AM 24.8 °F 16.1 °F 19.4 °F 80% 30.13 in 10.0 mi East 8.1 mph - N/A   Overcast
6:58 AM 24.8 °F 15.3 °F 19.4 °F 80% 30.14 in 10.0 mi East 9.2 mph - N/A   Overcast
7:18 AM 24.8 °F 14.6 °F 21.2 °F 86% 30.13 in 10.0 mi East 10.4 mph - N/A   Overcast
7:38 AM 24.8 °F 14.0 °F 21.2 °F 86% 30.12 in 10.0 mi East 11.5 mph 17.3 mph N/A   Overcast
7:58 AM 24.8 °F 12.4 °F 21.2 °F 86% 30.10 in 10.0 mi East 15.0 mph 19.6 mph N/A   Overcast
8:18 AM 24.8 °F 12.4 °F 21.2 °F 86% 30.10 in 3.0 mi East 15.0 mph 21.9 mph N/A Snow Light Snow
8:38 AM 24.8 °F 12.9 °F 21.2 °F 86% 30.09 in 2.5 mi East 13.8 mph 19.6 mph N/A Snow Light Snow
8:58 AM 24.8 °F 12.4 °F 21.2 °F 86% 30.07 in 1.8 mi East 15.0 mph - N/A Snow Light Snow
9:18 AM 26.6 °F 15.7 °F 21.2 °F 80% 30.05 in 1.5 mi East 12.7 mph - N/A Snow Light Snow
9:38 AM 24.8 °F 14.0 °F 23.0 °F 93% 30.03 in 0.2 mi East 11.5 mph - N/A Snow Snow
9:58 AM 26.6 °F 16.8 °F 23.0 °F 86% 30.02 in 0.5 mi East 10.4 mph 16.1 mph N/A Snow Snow
10:18 AM 26.6 °F 15.7 °F 24.8 °F 93% 30.02 in 0.5 mi ESE 12.7 mph 18.4 mph N/A Snow Snow
10:38 AM 26.6 °F 15.7 °F 24.8 °F 93% 30.01 in 0.2 mi ESE 12.7 mph - N/A Snow Heavy Snow
10:58 AM 28.4 °F 17.0 °F 24.8 °F 86% 29.99 in 0.5 mi ESE 15.0 mph - N/A Snow Snow
11:18 AM 28.4 °F 16.2 °F 26.6 °F 93% 29.98 in 0.5 mi ESE 17.3 mph 23.0 mph N/A Snow Snow
11:38 AM 30.2 °F 18.9 °F 26.6 °F 86% 29.97 in 0.8 mi ESE 16.1 mph 24.2 mph N/A Snow Light Snow
11:58 AM 30.2 °F 19.3 °F 26.6 °F 86% 29.97 in 3.0 mi ESE 15.0 mph 23.0 mph N/A   Overcast
12:18 PM 30.2 °F 19.3 °F 26.6 °F 86% 29.96 in 5.0 mi SE 15.0 mph 20.7 mph N/A   Overcast
12:38 PM 30.2 °F 19.3 °F 26.6 °F 86% 29.95 in 5.0 mi ESE 15.0 mph - N/A Snow Light Snow
12:58 PM 30.2 °F 19.8 °F 26.6 °F 86% 29.94 in 10.0 mi SE 13.8 mph 17.3 mph N/A   Overcast
1:18 PM 30.2 °F 21.9 °F 26.6 °F 86% 29.94 in 7.0 mi SE 9.2 mph 16.1 mph N/A Snow Light Snow
1:38 PM 32.0 °F 24.2 °F 26.6 °F 80% 29.93 in 10.0 mi SE 9.2 mph - N/A   Overcast
1:58 PM 32.0 °F 24.2 °F 26.6 °F 80% 29.92 in 10.0 mi SE 9.2 mph - N/A   Overcast
2:18 PM 32.0 °F 23.6 °F 28.4 °F 87% 29.92 in 7.0 mi SSE 10.4 mph - N/A   Overcast
2:38 PM 32.0 °F 25.6 °F 28.4 °F 87% 29.91 in 7.0 mi SE 6.9 mph - N/A   Overcast
2:58 PM 32.0 °F 24.2 °F 28.4 °F 87% 29.91 in 2.5 mi SE 9.2 mph - N/A   Overcast
3:18 PM 32.0 °F 26.4 °F 30.2 °F 93% 29.91 in 2.0 mi SE 5.8 mph - N/A   Overcast
3:38 PM 32.0 °F 25.6 °F 30.2 °F 93% 29.91 in 2.0 mi SE 6.9 mph - N/A   Overcast
3:58 PM 32.0 °F 24.2 °F 30.2 °F 93% 29.91 in 2.0 mi SE 9.2 mph - N/A   Overcast
4:18 PM 32.0 °F 24.8 °F 30.2 °F 93% 29.91 in 1.8 mi SE 8.1 mph - N/A   Overcast
4:38 PM 32.0 °F 24.8 °F 30.2 °F 93% 29.91 in 1.8 mi SE 8.1 mph - N/A   Overcast
4:58 PM 32.0 °F 25.6 °F 30.2 °F 93% 29.90 in 1.8 mi SE 6.9 mph - N/A   Overcast
5:18 PM 32.0 °F 26.4 °F 30.2 °F 93% 29.90 in 2.5 mi SE 5.8 mph - N/A   Overcast
5:38 PM 32.0 °F 27.5 °F 30.2 °F 93% 29.91 in 2.0 mi SE 4.6 mph - N/A   Overcast
5:58 PM 32.0 °F 25.6 °F 32.0 °F 100% 29.90 in 1.5 mi SE 6.9 mph - N/A   Overcast
6:18 PM 32.0 °F 25.6 °F 32.0 °F 100% 29.90 in 1.2 mi SSE 6.9 mph - N/A   Overcast
6:38 PM 32.0 °F 27.5 °F 32.0 °F 100% 29.90 in 1.2 mi SSE 4.6 mph - N/A   Overcast
6:58 PM 32.0 °F 27.5 °F 32.0 °F 100% 29.90 in 1.0 mi SSE 4.6 mph - N/A   Overcast
7:18 PM 33.8 °F 29.6 °F 32.0 °F 93% 29.90 in 0.8 mi South 4.6 mph - N/A   Overcast
7:38 PM 33.8 °F 28.6 °F 32.0 °F 93% 29.90 in 0.5 mi South 5.8 mph - N/A Fog Fog
7:58 PM 33.8 °F 28.6 °F 32.0 °F 93% 29.90 in 0.5 mi South 5.8 mph - N/A Fog Fog
8:18 PM 33.8 °F 28.6 °F 32.0 °F 93% 29.90 in 0.5 mi South 5.8 mph - N/A Fog Fog
8:38 PM 33.8 °F 27.0 °F 33.8 °F 100% 29.90 in 0.8 mi SSW 8.1 mph - N/A   Overcast
8:58 PM 33.8 °F 25.8 °F 33.8 °F 100% 29.89 in 1.0 mi SSW 10.4 mph - N/A   Overcast
9:18 PM 33.8 °F 27.7 °F 33.8 °F 100% 29.89 in 1.8 mi SSW 6.9 mph - N/A   Overcast
9:38 PM 33.8 °F 27.7 °F 33.8 °F 100% 29.89 in 1.8 mi SSW 6.9 mph - N/A   Overcast
9:58 PM 33.8 °F 27.0 °F 33.8 °F 100% 29.89 in 2.0 mi SSW 8.1 mph - N/A   Overcast
10:18 PM 33.8 °F 27.7 °F 33.8 °F 100% 29.89 in 2.5 mi SSW 6.9 mph - N/A   Overcast
10:39 PM 33.8 °F 27.7 °F 33.8 °F 100% 29.89 in 3.0 mi SSW 6.9 mph - N/A   Overcast
10:58 PM 33.8 °F 27.7 °F 33.8 °F 100% 29.89 in 4.0 mi SSW 6.9 mph - N/A   Overcast
11:18 PM 35.6 °F 30.7 °F 33.8 °F 93% 29.89 in 3.0 mi SSW 5.8 mph - N/A   Overcast
11:38 PM 35.6 °F 29.9 °F 33.8 °F 93% 29.89 in 4.0 mi SSW 6.9 mph - N/A   Overcast
11:58 PM 35.6 °F 29.2 °F 33.8 °F 93% 29.88 in 4.0 mi SSW 8.1 mph - N/A   Overcast